Theta_e
345 345 343 342 341 339 337 336 336 336 336 336 336 336 335 335 335 335 335 335 335 335 338 342 345 347 346 345 345 343 340 334 329 325 324 325 326 327 326 327 329 330
347 347 347 346 344 342 340 339 337 336 336 336 336 336 336 335 335 336 336 335 335 335 338 343 345 346 346 345 343 342 338 333 327 325 324 324 326 327 327 328 329 329
347 347 348 347 346 345 343 343 341 340 338 338 338 338 338 337 336 336 336 336 336 335 338 343 344 344 345 343 341 339 336 331 327 324 325 325 325 325 326 328 330 330
347 347 347 348 347 347 346 346 345 343 342 340 339 339 340 339 337 336 336 336 336 335 338 343 344 343 344 343 340 337 334 331 328 325 325 326 325 325 327 328 330 331
345 346 346 347 348 347 347 348 347 346 345 343 341 340 340 339 339 338 336 335 336 336 338 341 343 343 343 344 340 336 333 332 330 327 325 326 326 326 327 329 330 331
345 345 345 346 347 348 348 348 348 347 347 346 344 343 341 340 340 339 337 336 335 336 338 341 342 342 343 344 341 336 334 333 331 329 327 326 326 327 328 329 330 330
345 346 345 346 346 347 348 348 348 348 347 347 347 346 345 343 341 340 339 337 336 336 338 341 342 342 342 344 342 339 335 333 332 330 328 326 326 327 328 329 329 329
345 346 345 345 346 347 348 348 348 348 347 347 347 347 347 345 342 341 340 339 337 336 337 340 341 342 342 343 343 341 338 334 333 332 331 328 326 326 327 328 328 328
345 345 344 345 345 346 347 348 347 348 348 347 347 347 348 346 344 342 340 339 339 336 336 338 340 341 342 343 343 343 340 335 333 333 333 330 328 327 326 327 327 327
344 344 344 345 346 346 347 347 347 347 347 347 347 347 347 347 344 342 341 340 339 337 336 336 339 340 341 342 343 344 342 338 335 334 334 333 331 329 328 327 326 325
344 344 344 345 346 346 347 347 347 347 347 347 348 348 348 347 345 343 341 340 339 338 336 335 337 339 340 341 342 343 343 341 338 335 335 335 335 333 331 329 326 325
343 344 344 344 346 346 345 346 346 347 347 347 348 348 348 348 346 343 341 339 338 337 336 336 336 337 339 340 341 342 342 342 341 337 335 336 337 337 335 333 330 327
343 343 344 344 344 345 345 345 346 347 347 347 348 348 348 348 347 344 340 338 337 336 336 336 336 336 337 338 340 340 341 342 342 340 336 335 337 338 337 335 334 332
343 343 343 344 344 344 345 345 346 346 347 347 347 348 348 349 348 345 341 338 337 336 336 336 336 336 336 337 338 339 340 341 342 342 339 336 336 338 339 338 337 337
343 344 343 344 345 345 345 346 346 346 347 347 348 348 348 349 349 347 344 340 338 336 336 336 336 336 336 336 337 338 339 340 341 342 341 339 338 338 340 341 341 341
343 344 344 344 345 346 346 346 346 346 347 347 347 348 348 349 349 349 347 343 340 337 336 335 336 336 335 335 336 337 337 338 340 341 342 342 341 340 340 340 341 342
344 344 345 345 345 346 346 347 347 347 347 347 347 348 348 349 349 350 349 346 343 339 336 335 335 335 335 335 335 336 337 338 339 340 340 342 342 342 342 341 340 341
344 345 345 345 346 347 347 347 347 347 347 348 347 348 348 349 349 350 350 349 345 341 337 335 333 334 335 335 335 335 335 337 338 339 340 340 341 342 343 342 341 340
345 345 346 346 346 347 348 347 348 348 348 348 348 348 349 349 350 350 350 350 347 343 338 335 332 332 333 334 334 335 335 336 337 337 338 339 340 341 342 343 343 342
345 345 346 346 347 347 348 348 348 348 348 348 348 348 349 349 350 350 350 350 349 345 340 336 333 331 331 333 333 334 335 336 336 336 337 338 339 340 342 343 344 344
346 346 347 347 348 348 349 349 349 349 349 349 349 349 349 349 349 350 351 351 350 348 343 338 333 330 331 331 332 333 333 335 336 336 336 337 338 340 342 343 344 345
347 347 348 348 349 349 349 349 349 349 350 350 350 349 349 349 350 350 351 351 350 350 347 341 335 331 331 330 331 332 333 334 336 336 337 338 339 340 342 343 345 346
347 347 348 348 348 349 349 349 349 349 350 350 349 349 350 350 351 350 351 351 351 351 350 346 340 334 330 330 331 332 333 334 335 336 338 339 339 340 342 344 345 346
345 346 346 346 347 347 347 348 348 348 349 349 349 350 350 350 351 351 351 351 351 351 351 350 346 339 333 332 332 332 334 335 335 337 339 340 340 341 343 345 346 347
344 345 346 347 347 347 347 348 348 348 349 349 350 350 350 350 351 351 350 350 351 351 351 351 350 345 340 337 336 335 336 337 338 338 340 341 342 343 345 346 347 348
344 345 346 347 347 347 348 348 348 348 349 350 350 351 351 352 351 350 349 350 351 352 351 351 351 350 347 344 342 340 339 340 340 339 340 342 344 345 346 346 347 349
Wind_Speed
36 35 35 35 36 36 36 35 34 33 31 30 29 27 25 24 24 23 22 22 21 21 21 21 21 20 18 17 16 16 16 15 14 13 14 14 13 13 13 12 13 14
38 37 36 35 35 34 34 33 33 33 32 30 29 28 27 25 24 23 23 22 22 21 21 22 21 20 19 18 17 17 17 16 14 14 15 16 15 14 14 13 12 12
39 38 37 36 35 33 33 32 32 32 31 30 29 28 27 26 25 24 23 23 22 22 22 22 22 21 20 18 17 18 18 17 15 15 16 17 16 15 15 13 12 11
41 40 38 37 36 34 33 33 31 30 30 30 29 28 26 25 25 24 24 24 23 23 23 23 22 21 20 19 18 19 18 17 16 16 17 18 17 17 16 15 13 12
41 40 40 39 38 36 35 34 33 31 30 30 30 29 28 26 25 25 25 25 24 24 24 24 23 22 21 20 20 20 19 18 18 18 18 19 19 18 17 16 15 14
43 42 41 41 40 39 38 36 35 33 32 31 30 29 29 28 27 27 27 26 26 25 25 25 25 24 22 21 21 21 20 20 19 19 20 20 20 20 19 18 16 15
45 44 43 42 42 41 40 39 37 35 33 32 31 30 29 29 29 29 29 28 27 27 27 27 26 25 24 22 22 22 22 21 20 20 21 21 21 21 21 19 18 17
44 43 42 42 42 42 42 41 39 37 35 34 33 31 30 30 30 31 31 30 30 29 29 28 27 27 26 24 23 23 23 23 22 22 22 22 22 22 22 21 20 18
43 43 42 42 42 43 43 42 40 38 36 35 34 33 31 31 31 31 32 32 32 31 31 30 29 28 28 27 25 24 24 25 24 24 23 22 22 22 22 21 20 20
45 44 43 43 44 44 43 42 41 39 37 36 35 34 33 32 31 32 33 34 34 33 33 32 31 30 30 29 27 26 26 26 26 25 24 23 22 21 22 21 21 21
47 46 46 46 45 45 43 42 41 40 39 37 36 36 35 33 32 34 35 36 36 36 35 34 33 32 31 30 29 27 27 27 27 26 26 24 22 21 21 21 21 21
49 48 48 48 47 46 44 42 41 41 40 38 37 37 36 34 34 35 37 38 38 37 37 36 35 34 32 31 30 29 28 28 28 28 27 26 24 23 22 21 21 21
50 50 49 49 48 46 45 43 42 42 41 39 38 38 38 36 35 36 39 40 39 39 38 37 36 36 34 32 31 31 30 29 29 29 28 27 26 24 23 22 21 22
51 50 49 49 49 47 46 45 44 42 42 40 39 40 40 38 36 37 39 40 40 40 39 39 38 38 36 34 33 32 32 31 30 30 29 28 27 26 25 24 23 22
51 51 50 50 50 49 48 47 46 44 42 42 41 41 41 40 38 37 38 40 41 41 41 41 40 40 39 37 35 34 33 33 32 31 30 29 28 27 27 26 25 24
51 51 51 51 51 50 49 48 47 45 44 43 42 41 42 42 40 39 39 40 41 42 42 43 43 43 41 38 36 35 35 34 33 32 31 30 29 28 28 27 26 25
50 51 52 52 51 51 50 49 47 46 45 45 43 42 43 43 42 41 40 39 40 42 43 45 45 44 42 39 37 36 36 36 35 33 31 30 29 29 28 27 26 25
50 52 52 51 51 51 50 49 48 47 46 45 44 43 43 44 43 43 41 40 41 42 44 46 47 45 43 40 38 37 37 37 36 34 33 31 30 29 28 26 25 25
51 52 52 52 51 51 50 49 49 49 48 47 45 44 44 44 44 43 42 42 42 43 44 46 47 46 44 42 39 38 38 38 37 35 34 32 30 29 28 27 25 25
51 51 52 52 52 50 50 50 50 49 48 47 46 45 45 46 45 44 44 43 43 43 43 45 47 47 45 43 41 39 39 38 37 36 35 33 31 29 28 27 26 25
51 51 51 51 51 50 50 50 50 49 48 48 48 47 47 46 45 45 45 45 44 43 43 44 46 47 46 44 42 41 40 38 37 37 36 34 32 30 29 28 26 25
50 50 50 50 49 49 50 50 50 50 49 49 48 47 47 46 46 46 47 46 45 44 44 45 45 45 45 44 43 41 40 39 39 38 37 35 33 31 29 28 26 25
49 49 49 49 49 49 50 50 50 50 49 48 48 48 48 48 48 48 48 47 47 45 45 45 45 45 45 44 43 42 41 41 40 38 38 36 34 31 30 29 27 25
47 47 47 48 49 49 49 49 49 49 48 47 47 48 48 48 48 49 48 48 48 47 46 45 45 44 43 44 43 42 41 42 40 38 38 37 35 32 30 29 27 26
43 45 46 48 48 48 48 48 48 47 47 47 47 48 48 47 48 49 49 49 48 48 47 46 45 44 43 44 43 42 42 41 39 38 39 38 35 33 31 30 29 27
41 44 46 46 46 45 46 46 46 45 45 46 47 49 49 49 49 49 48 48 49 49 48 47 46 44 44 44 43 42 42 41 40 39 40 39 36 34 32 32 31 29
Wind_Direction
228 229 230 231 233 235 236 237 238 238 239 238 236 234 233 236 239 241 242 244 247 249 248 245 244 245 248 250 251 253 254 255 252 248 243 236 233 233 229 224 225 227
230 231 231 232 233 234 236 237 238 238 240 240 238 234 233 234 237 240 242 244 246 248 248 245 242 242 245 247 247 248 250 250 247 243 240 235 231 232 232 226 226 228
232 234 234 234 233 234 236 237 238 237 238 239 237 234 232 232 234 237 240 242 245 247 246 245 243 241 242 245 245 245 245 245 243 240 239 236 232 230 230 226 227 233
233 235 236 236 236 236 237 238 238 237 236 237 235 232 231 230 231 234 237 240 243 244 244 243 243 241 241 242 241 241 242 241 240 238 238 236 232 230 229 227 228 234
234 235 236 236 237 237 238 239 239 238 236 235 234 232 231 230 231 232 234 237 240 242 242 241 241 241 240 239 239 238 239 240 237 236 236 235 233 231 230 229 230 234
235 235 236 237 238 238 238 239 239 239 238 237 236 234 232 231 232 233 233 235 238 240 240 239 240 241 239 237 237 236 237 239 238 236 236 236 234 234 232 231 232 235
236 236 237 237 238 238 238 238 239 239 239 239 238 237 234 233 233 233 234 234 236 237 238 238 238 239 238 236 236 236 236 238 238 236 237 236 235 236 236 234 235 238
237 237 237 238 238 239 238 238 238 239 239 239 239 238 237 234 233 233 234 234 234 235 236 236 236 237 238 236 236 236 237 238 237 237 238 237 235 236 236 236 237 240
238 238 238 238 238 239 239 239 239 239 239 239 239 239 237 235 233 233 233 233 234 234 234 234 235 235 236 235 235 236 236 237 237 238 239 239 238 237 237 237 238 241
239 239 239 238 238 238 238 239 239 239 238 237 237 238 237 235 233 232 233 233 233 233 233 233 233 233 234 235 235 235 236 237 238 238 239 240 241 241 240 239 239 241
239 239 239 239 238 238 238 238 238 238 238 237 236 237 236 234 232 231 232 232 232 232 231 231 232 232 234 234 234 235 236 237 239 239 239 239 241 243 243 242 241 241
239 239 239 239 238 238 238 238 238 238 238 237 236 236 237 235 232 231 231 230 230 230 230 231 231 232 233 234 234 235 236 237 239 239 239 239 239 241 243 243 243 243
238 239 239 239 239 239 239 239 238 238 238 238 236 236 237 236 233 231 231 230 230 230 230 231 231 232 233 233 234 235 236 237 239 239 239 239 239 240 241 241 241 242
238 239 240 240 240 240 240 239 239 238 238 238 237 237 237 236 234 233 232 231 231 230 231 231 232 232 232 232 233 234 235 236 238 239 239 239 239 239 239 239 239 240
237 237 239 240 240 240 240 239 239 239 238 238 238 237 237 237 236 235 235 233 232 232 231 232 232 232 232 231 231 233 235 236 237 238 238 239 239 239 240 240 239 240
237 237 238 239 239 239 239 239 239 239 238 238 238 237 237 238 237 236 236 236 235 233 232 233 233 232 232 231 230 232 235 237 237 238 239 239 239 240 241 241 241 242
236 236 237 238 238 238 238 238 239 239 238 237 237 237 238 238 238 237 236 237 237 235 234 234 234 233 232 231 230 231 235 237 239 239 240 240 241 241 242 243 244 245
235 235 236 237 237 236 236 237 238 238 238 237 237 236 237 238 238 238 237 237 238 237 236 235 235 234 233 232 231 231 235 238 239 240 241 241 241 242 243 245 245 246
233 234 235 236 236 236 236 236 237 237 238 238 237 237 237 238 239 239 238 238 238 238 238 237 237 236 235 234 232 232 235 238 240 241 241 242 242 242 243 245 245 246
233 234 234 235 235 235 236 236 237 237 238 239 238 237 237 238 238 239 239 239 239 239 239 239 238 237 236 235 234 233 234 237 240 242 242 242 243 243 243 244 244 244
231 232 233 233 234 234 235 236 237 238 238 238 238 238 238 238 238 239 240 240 240 241 241 240 239 238 237 236 235 234 235 237 239 241 242 243 242 242 242 243 242 241
230 230 231 232 233 234 235 236 238 239 238 238 238 238 239 239 238 239 240 241 241 242 242 243 241 239 238 237 236 235 236 237 238 240 241 242 241 241 241 241 239 237
231 231 233 234 234 235 236 238 239 239 239 238 239 238 239 239 238 238 239 241 242 242 243 244 244 243 240 239 238 237 237 237 237 238 240 241 240 239 239 238 235 231
235 236 236 237 236 237 238 239 240 240 240 240 239 239 239 239 239 239 239 240 242 242 243 244 246 246 244 242 241 239 238 238 238 237 238 239 238 237 238 236 231 226
239 238 237 236 238 239 239 240 240 241 241 240 239 239 239 239 238 239 240 241 241 243 244 244 246 247 246 246 245 242 241 241 239 237 237 237 236 235 234 231 227 224
239 238 236 237 240 241 241 241 242 242 242 241 240 240 239 238 237 238 239 240 240 242 243 244 244 246 246 247 247 245 244 243 240 237 236 235 234 233 231 228 224 221